This demonstration page uses our WeatherBlox Daily Observations layout. Learn more.

Left ArrowRight Arrow

39.92423, -83.80882

Hourly Observations for August 4, 2019

Temp ( °F °C ) Dew Point ( °F °C ) Humidity (%) Winds ( mph kmh ) Pressure ( in mb ) Visibility ( mi km ) Precip ( " mm )
12:56 am 00:56 Clear 63 17.2 60 15.6 90 90 N N/A 30.04 1017 10 16.0934 N/A
1:56 am 01:56 Clear 62 16.7 59 15 90 90 N N/A 30.04 1017 10 16.0934 N/A
2:56 am 02:56 Clear 60 15.6 58 14.4 93 93 N N/A 30.04 1017 10 16.0934 N/A
3:56 am 03:56 Clear 61 16.1 58 14.4 90 90 N N/A 30.03 1017 10 16.0934 N/A
4:56 am 04:56 Clear 60 15.6 58 14.4 93 93 N N/A 30.03 1017 10 16.0934 N/A
5:56 am 05:56 Clear 58 14.4 58 14.4 100 100 N N/A 30.04 1017 10 16.0934 N/A
6:56 am 06:56 Sunny 59 15 58 14.4 96 96 NW 3 6 30.04 1017 10 16.0934 N/A
7:56 am 07:56 Sunny 63 17.2 61 16.1 93 93 N N/A 30.06 1018 10 16.0934 N/A
8:56 am 08:56 Sunny 71 21.7 60 15.6 68 68 N N/A 30.06 1018 10 16.0934 N/A
9:56 am 09:56 Sunny 77 25 58 14.4 52 52 N N/A 30.06 1018 10 16.0934 N/A
10:56 am 10:56 Sunny 81 27.2 60 15.6 49 49 VRB 5 7 30.06 1018 10 16.0934 N/A
11:56 am 11:56 Sunny 83 28.3 60 15.6 46 46 VRB 6 9 30.05 1018 10 16.0934 N/A
12:56 pm 12:56 Sunny 85 29.4 60 15.6 43 43 N 8 13 30.04 1017 10 16.0934 N/A
1:56 pm 13:56 Partly Cloudy 84 28.9 60 15.6 44 44 VRB 6 9 30.03 1017 10 16.0934 N/A
2:56 pm 14:56 Mostly Sunny 86 30 60 15.6 42 42 N 8 13 30.01 1016 10 16.0934 N/A
3:56 pm 15:56 Sunny 86 30 60 15.6 42 42 NW 7 11 30 1016 10 16.0934 N/A
4:56 pm 16:56 Sunny 87 30.6 60 15.6 40 40 WNW 8 13 29.98 1015 10 16.0934 N/A
5:56 pm 17:56 Sunny 86 30 60 15.6 42 42 VRB 3 6 29.98 1015 10 16.0934 N/A
6:56 pm 18:56 Sunny 85 29.4 61 16.1 45 45 NNW 6 9 29.97 1015 10 16.0934 N/A
7:56 pm 19:56 Sunny 82 27.8 63 17.2 53 53 NNW 6 9 29.98 1015 10 16.0934 N/A
8:56 pm 20:56 Clear 78 25.6 62 16.7 58 58 NNW 3 6 29.98 1015 10 16.0934 N/A
9:56 pm 21:56 Mostly Clear 73 22.8 63 17.2 71 71 N N/A 29.99 1016 10 16.0934 N/A
10:56 pm 22:56 Clear 69 20.6 64 17.8 84 84 E 5 7 30 1016 10 16.0934 N/A
11:56 pm 23:56 Clear 69 20.6 64 17.8 84 84 E 5 7 30 1016 10 16.0934 N/A

Powered by AerisWeather